This demonstration page uses our WeatherBlox Daily Observations layout. Learn more.

Left ArrowRight Arrow

Hourly Observations for August 8, 2022

Temp ( °F °C ) Dew Point ( °F °C ) Humidity (%) Winds ( mph kmh ) Pressure ( in mb ) Visibility ( mi km ) Precip ( " mm )
12:53 am 00:53 Cloudy 66 18.9 62 16.7 87 87 Calm 30.09 1019 10 16 0.00 0.00
1:53 am 01:53 Mostly Cloudy 65 18.3 61 16.1 87 87 N 9 15 30.09 1019 10 16 0.00 0.00
2:53 am 02:53 Mostly Cloudy 65 18.3 60 15.6 84 84 NNW 8 13 30.11 1020 10 16 0.00 0.00
3:53 am 03:53 Clear 64 17.8 59 15 84 84 NNW 9 15 30.09 1019 10 16 0.00 0.00
4:37 am 04:37 Mostly Clear 63 17.2 59 15 87 87 NNW 9 15 30.11 1019 10 16 0.00 0.00
4:53 am 04:53 Mostly Cloudy 63 17.2 59 15 87 87 NNW 12 19 30.11 1020 10 16 0.00 0.00
5:53 am 05:53 Partly Cloudy 61 16.1 58 14.4 90 90 N 10 17 30.11 1020 10 16 0.00 0.00
6:53 am 06:53 Sunny 60 15.6 58 14.4 93 93 N 21 33 30.06 1018 10 16 0.00 0.00
7:53 am 07:53 Mostly Sunny 61 16.1 57 13.9 87 87 N 8 13 30.13 1020 10 16 0.00 0.00
8:00 am 08:00 Partly Cloudy 61 16 57 14 88 88 NNE 8 13 30.12 1020 10 16 0.00 0.00
8:14 am 08:14 Mostly Cloudy 61 16.1 57 13.9 87 87 NNE 9 15 30.12 1020 10 16 0.00 0.00
8:53 am 08:53 Cloudy 62 16.7 57 13.9 84 84 NE 10 17 30.15 1021 10 16 0.00 0.00
9:23 am 09:23 Mostly Cloudy 62 16.7 57 13.9 84 84 NE 8 13 30.16 1021 10 16 0.00 0.00
9:53 am 09:53 Mostly Cloudy 66 18.9 58 14.4 75 75 VRB 6 9 30.16 1021 10 16 0.00 0.00
10:17 am 10:17 Partly Cloudy 66 18.9 56 13.3 70 70 NE 8 13 30.14 1021 10 16 0.00 0.00
10:53 am 10:53 Sunny 66 18.9 56 13.3 70 70 NNE 8 13 30.17 1022 10 16 0.00 0.00
11:53 am 11:53 Sunny 71 21.7 57 13.9 61 61 ENE 9 15 30.17 1022 10 16 0.00 0.00
12:53 pm 12:53 Sunny 73 22.8 57 13.9 57 57 ENE 13 20 30.15 1021 10 16 0.00 0.00
1:53 pm 13:53 Sunny 77 25 59 15 54 54 NE 9 15 30.13 1020 10 16 0.00 0.00
2:53 pm 14:53 Sunny 77 25 59 15 54 54 ENE 9 15 30.11 1020 10 16 0.00 0.00
3:53 pm 15:53 Sunny 79 26.1 60 15.6 52 52 NE 7 11 30.09 1019 10 16 0.00 0.00
4:53 pm 16:53 Sunny 80 26.7 61 16.1 52 52 NE 9 15 30.08 1019 10 16 0.00 0.00
5:53 pm 17:53 Sunny 79 26.1 60 15.6 52 52 VRB 7 11 30.07 1018 10 16 0.00 0.00
6:53 pm 18:53 Sunny 78 25.6 59 15 52 52 NE 5 7 30.06 1018 10 16 0.00 0.00
7:53 pm 19:53 Sunny 75 23.9 62 16.7 64 64 E 6 9 30.06 1018 10 16 0.00 0.00
8:53 pm 20:53 Clear 71 21.7 61 16.1 70 70 E 3 6 30.08 1019 10 16 0.00 0.00
9:53 pm 21:53 Clear 69 20.6 61 16.1 75 75 E 6 9 30.09 1019 10 16 0.00 0.00
10:53 pm 22:53 Clear 68 20 60 15.6 76 76 ESE 7 11 30.10 1019 10 16 0.00 0.00
11:53 pm 23:53 Clear 64 17.8 58 14.4 80 80 Calm 30.11 1020 10 16 0.00 0.00

Powered by AerisWeather